This is the latest recevied weather packets stored in our database for station/object KC8BSD. If no packets are shown the sender has not sent any weather packets the latest 10 day(s).
| Time | Temp. | Humidity | Pressure | Rain* | Wind** | Luminosity | Snow |
|---|---|---|---|---|---|---|---|
| 1778157145 | 8.89° C | 60% | 1014.2 hPa | 0 mm | - | 216 W/m² | - |
| 1778156839 | 8.33° C | 64% | 1014.3 hPa | 0 mm | - | 196 W/m² | - |
| 1778156535 | 7.78° C | 63% | 1014.5 hPa | 0 mm | - | 163 W/m² | - |
| 1778156231 | 8.33° C | 65% | 1014.6 hPa | 0 mm | - | 165 W/m² | - |
| 1778155928 | 7.78° C | 66% | 1014.1 hPa | 0 mm | - | 147 W/m² | - |
| 1778155624 | 7.22° C | 67% | 1014.4 hPa | 0 mm | - | 138 W/m² | - |
| 1778155321 | 7.22° C | 71% | 1014.4 hPa | 0 mm | - | 118 W/m² | - |
| 1778155017 | 6.67° C | 72% | 1014.3 hPa | 0 mm | - | 109 W/m² | - |
| 1778154713 | 5.56° C | 73% | 1014.4 hPa | 0 mm | - | 102 W/m² | - |
| 1778154409 | 5.56° C | 85% | 1014.4 hPa | 0 mm | - | 88 W/m² | - |
| 1778154106 | 4.44° C | 88% | 1014.4 hPa | 0 mm | - | 62 W/m² | - |
| 1778153804 | 3.89° C | 90% | 1014.2 hPa | 0 mm | - | 42 W/m² | - |
| 1778153500 | 3.89° C | 91% | 1014.2 hPa | 0 mm | - | 38 W/m² | - |
| 1778153198 | 3.33° C | 91% | 1014.3 hPa | 0 mm | - | 37 W/m² | - |
| 1778152894 | 2.22° C | 90% | 1014.3 hPa | 0 mm | - | 34 W/m² | - |
| 1778152592 | 1.67° C | 90% | 1014.2 hPa | 0 mm | - | 24 W/m² | - |
| 1778152288 | 1.67° C | 90% | 1014.1 hPa | 0 mm | - | 21 W/m² | - |
| 1778151984 | 1.67° C | 89% | 1014 hPa | 0 mm | - | 17 W/m² | - |
| 1778151681 | 1.67° C | 89% | 1014 hPa | 0 mm | - | 17 W/m² | - |
| 1778151378 | 1.67° C | 89% | 1014.1 hPa | 0 mm | - | 13 W/m² | - |
| 1778151074 | 1.67° C | 89% | 1014.4 hPa | 0 mm | - | 11 W/m² | - |
| 1778150772 | 1.67° C | 89% | 1014.2 hPa | 0 mm | - | 9 W/m² | - |
| 1778150468 | 1.67° C | 89% | 1013.9 hPa | 0 mm | - | 7 W/m² | - |
| 1778150164 | 1.11° C | 88% | 1014.1 hPa | 0 mm | - | 5 W/m² | - |
| 1778149861 | 0.56° C | 87% | 1014.1 hPa | 0 mm | - | 3 W/m² | - |
* Rain latest hour (hover to see other rain measurements)
** Current wind speed in m/s (hover to see current wind gust speed)